"2007/01/01",1028.4,1031.8,1022.1
"2007/01/02",1020.7,1022.4,1019.0
"2007/01/03",1022.1,1023.7,1019.5
"2007/01/04",1023.6,1025.7,1021.6
"2007/01/05",1026.8,1028.8,1024.4
"2007/01/06",1008.2,1024.6, 990.9
"2007/01/07", 992.1,1003.2, 987.2
"2007/01/08",1010.2,1017.0,1003.1
"2007/01/09",1021.4,1024.0,1017.0
"2007/01/10",1021.4,1023.0,1019.3
"2007/01/11",1023.3,1025.2,1021.4
"2007/01/12",1021.8,1025.1,1017.1
"2007/01/13",1016.4,1019.0,1014.4
"2007/01/14",1021.4,1024.0,1018.5
"2007/01/15",1024.9,1026.9,1023.6
"2007/01/16",1022.7,1025.5,1018.6
"2007/01/17",1017.8,1019.9,1016.5
"2007/01/18",1016.1,1017.9,1014.0
"2007/01/19",1023.3,1027.2,1017.4
"2007/01/20",1028.2,1029.7,1026.7
"2007/01/21",1026.6,1028.8,1024.0
"2007/01/22",1019.5,1024.1,1015.8
"2007/01/23",1020.9,1022.6,1019.3
"2007/01/24",1017.8,1021.0,1015.1
"2007/01/25",1017.7,1020.8,1015.8
"2007/01/26",1019.0,1022.3,1012.0
"2007/01/27",1012.9,1018.3,1009.3
"2007/01/28",1019.4,1022.0,1017.3
"2007/01/29",1018.6,1021.0,1016.3
"2007/01/30",1022.6,1024.9,1020.8
"2007/01/31",1015.6,1020.9,1012.2
"2007/02/01",1008.5,1012.3,1004.2
"2007/02/02",1011.8,1015.6,1008.6
"2007/02/03",1014.7,1019.0,1007.5
"2007/02/04",1014.9,1023.8,1006.7
"2007/02/05",1022.8,1026.7,1018.0
"2007/02/06",1016.6,1018.3,1014.2
"2007/02/07",1022.2,1024.8,1018.3
"2007/02/08",1021.5,1025.3,1015.5
"2007/02/09",1011.4,1015.7,1007.1
"2007/02/10",1004.7,1007.3,1001.9
"2007/02/11",1007.4,1013.7,1001.3
"2007/02/12",1017.3,1020.5,1013.4
"2007/02/13",1023.8,1025.8,1020.2
"2007/02/14",1008.9,1024.2, 994.3
"2007/02/15",1000.9,1009.6, 995.8
"2007/02/16",1015.9,1023.4,1009.5
"2007/02/17",1021.8,1025.4,1014.9
"2007/02/18",1007.8,1014.9,1002.9
"2007/02/19",1013.6,1018.8,1009.3
"2007/02/20",1020.7,1022.2,1018.8
"2007/02/21",1019.2,1021.2,1016.6
"2007/02/22",1021.3,1023.8,1018.6
"2007/02/23",1011.5,1018.8,1007.4
"2007/02/24",1017.0,1023.7,1008.8
"2007/02/25",1026.2,1028.0,1023.6
"2007/02/26",1027.4,1029.0,1026.2
"2007/02/27",1022.9,1027.4,1015.6
"2007/02/28",1017.4,1022.5,1013.7
"2007/03/01",1024.4,1026.1,1022.3
"2007/03/02",1024.9,1026.6,1023.3
"2007/03/03",1023.6,1025.5,1021.5
"2007/03/04",1021.3,1023.1,1018.9
"2007/03/05",1008.6,1019.1, 997.7
"2007/03/06",1000.9,1007.3, 997.3
"2007/03/07",1009.2,1011.4,1007.1
"2007/03/08",1014.0,1019.5,1010.8
"2007/03/09",1021.3,1023.2,1019.4
"2007/03/10",1020.4,1024.3,1012.0
"2007/03/11",1003.0,1012.2, 997.0
"2007/03/12",1008.0,1010.5,1005.9
"2007/03/13",1009.8,1011.6,1007.4
"2007/03/14",1014.3,1018.1,1011.3
"2007/03/15",1019.1,1020.8,1017.5
"2007/03/16",1018.4,1020.7,1015.8
"2007/03/17",1017.5,1018.8,1015.3
"2007/03/18",1017.8,1020.0,1015.2
"2007/03/19",1017.8,1019.6,1015.3
"2007/03/20",1019.6,1023.0,1017.6
"2007/03/21",1023.5,1025.2,1021.9
"2007/03/22",1020.3,1024.2,1016.4
"2007/03/23",1021.1,1023.3,1017.7
"2007/03/24",1015.3,1021.0,1006.5
"2007/03/25",1000.7,1006.6, 996.4
"2007/03/26",1010.2,1015.5,1004.5
"2007/03/27",1012.9,1015.4,1008.9
"2007/03/28",1009.7,1013.1,1006.6
"2007/03/29",1008.3,1012.4,1005.6
"2007/03/30",1006.9,1015.7,1000.3
"2007/03/31",1013.7,1020.2,1002.1
"2007/04/01",1003.3,1008.7, 998.2
"2007/04/02",1006.6,1007.8,1005.3
"2007/04/03",1009.7,1014.2,1006.3
"2007/04/04",1014.6,1019.7,1011.2
"2007/04/05",1023.6,1026.6,1019.6
"2007/04/06",1024.7,1027.2,1022.0
"2007/04/07",1019.1,1022.1,1016.3
"2007/04/08",1016.3,1017.5,1015.0
"2007/04/09",1017.5,1020.7,1015.9
"2007/04/10",1019.4,1022.3,1016.7
"2007/04/11",1019.6,1022.1,1017.2
"2007/04/12",1020.8,1022.4,1018.4
"2007/04/13",1015.7,1020.4,1008.5
"2007/04/14",1003.5,1008.6, 999.6
"2007/04/15",1008.6,1010.4,1007.1
"2007/04/16",1006.2,1008.8,1000.6
"2007/04/17",1006.2,1015.4, 998.2
"2007/04/18",1017.1,1018.8,1015.1
"2007/04/19",1016.0,1022.6,1012.6
"2007/04/20",1022.8,1025.7,1020.0
"2007/04/21",1017.9,1020.0,1014.8
"2007/04/22",1009.2,1014.9,1004.8
"2007/04/23",1008.9,1016.4,1004.6
"2007/04/24",1016.1,1018.3,1013.0
"2007/04/25",1006.7,1013.1,1002.9
"2007/04/26",1011.0,1018.0,1007.2
"2007/04/27",1021.0,1023.4,1017.9
"2007/04/28",1016.2,1020.2,1010.4
"2007/04/29",1017.0,1018.5,1014.5
"2007/04/30",1018.1,1019.8,1016.0
"2007/05/01",1016.1,1018.2,1011.1
"2007/05/02",1004.2,1011.1, 999.8
"2007/05/03",1009.4,1011.3,1007.0
"2007/05/04",1010.2,1012.1,1008.3
"2007/05/05",1009.2,1010.2,1007.6
"2007/05/06",1004.1,1009.3, 995.7
"2007/05/07",1000.6,1005.8, 996.3
"2007/05/08",1009.1,1011.0,1005.7
"2007/05/09",1012.0,1014.8,1009.2
"2007/05/10",1002.1,1009.3, 995.4
"2007/05/11",1004.6,1011.4, 997.0
"2007/05/12",1010.2,1013.5,1006.5
"2007/05/13",1006.2,1011.1,1004.1
"2007/05/14",1013.6,1015.9,1011.0
"2007/05/15",1009.6,1013.8,1005.7
"2007/05/16",1014.0,1016.7,1010.8
"2007/05/17",1000.0,1011.0, 992.1
"2007/05/18",1000.1,1002.0, 996.8
"2007/05/19", 998.7,1001.5, 995.8
"2007/05/20",1005.9,1013.2,1001.3
"2007/05/21",1014.9,1016.6,1013.1
"2007/05/22",1013.6,1015.2,1011.6
"2007/05/23",1011.7,1013.3,1009.2
"2007/05/24",1012.1,1013.6,1010.8
"2007/05/25",1003.8,1011.6, 993.9
"2007/05/26", 997.8,1001.2, 994.4
"2007/05/27",1002.1,1008.1, 999.0
"2007/05/28",1016.3,1020.4,1008.0
"2007/05/29",1018.0,1021.0,1013.8
"2007/05/30",1008.7,1013.8,1005.5
"2007/05/31",1006.6,1009.7,1005.0
"2007/06/01",1012.2,1015.2,1008.7
"2007/06/02",1015.5,1017.1,1014.4
"2007/06/03",1016.5,1017.8,1014.5
"2007/06/04",1015.1,1016.8,1013.4
"2007/06/05",1011.9,1014.4,1009.7
"2007/06/06",1009.8,1010.8,1007.7
"2007/06/07",1011.1,1013.9,1009.6
"2007/06/08",1011.7,1013.6,1009.6
"2007/06/09",1010.5,1011.6,1009.1
"2007/06/10",1009.8,1011.4,1008.7
"2007/06/11",1012.5,1015.1,1010.0
"2007/06/12",1015.0,1016.5,1013.4
"2007/06/13",1013.5,1015.4,1011.8
"2007/06/14",1010.4,1013.0,1005.2
"2007/06/15",1001.6,1005.3, 999.8
"2007/06/16",1009.0,1014.9,1005.0
"2007/06/17",1015.7,1017.2,1014.0
"2007/06/18",1015.2,1016.7,1013.3
"2007/06/19",1015.8,1016.8,1014.9
"2007/06/20",1014.7,1016.7,1012.5
"2007/06/21",1009.8,1012.9,1006.8
"2007/06/22",1003.4,1007.0,1000.2
"2007/06/23",1006.3,1009.0,1002.5
"2007/06/24",1007.6,1009.1,1005.1
"2007/06/25",1004.1,1005.8,1002.9
"2007/06/26",1005.3,1006.5,1004.3
"2007/06/27",1008.1,1010.6,1005.8
"2007/06/28",1010.3,1011.8,1008.9
"2007/06/29",1003.2,1009.5, 999.0
"2007/06/30",1003.9,1008.3, 998.9
"2007/07/01",1008.1,1009.2,1006.9
"2007/07/02",1004.5,1008.4,1001.7
"2007/07/03",1003.9,1005.9,1002.3
"2007/07/04",1003.1,1005.6, 996.8
"2007/07/05", 999.8,1004.4, 995.6
"2007/07/06",1004.1,1005.4,1002.9
"2007/07/07",1004.1,1005.8,1002.6
"2007/07/08",1006.8,1008.4,1005.0
"2007/07/09",1008.0,1008.8,1007.0
"2007/07/10",1008.2,1009.4,1007.0
"2007/07/11",1005.2,1007.5,1003.9
"2007/07/12",1009.4,1011.1,1006.7
"2007/07/13",1011.3,1012.9,1009.1
"2007/07/14",1010.8,1013.6,1004.4
"2007/07/15", 992.8,1004.5, 984.2
"2007/07/16",1002.0,1006.1, 994.6
"2007/07/17",1004.6,1005.9,1002.8
"2007/07/18",1006.1,1008.8,1004.1
"2007/07/19",1008.6,1009.7,1007.6
"2007/07/20",1006.9,1009.1,1005.2
"2007/07/21",1005.8,1006.7,1004.8
"2007/07/22",1005.0,1005.9,1003.8
"2007/07/23",1006.7,1009.5,1004.7
"2007/07/24",1011.4,1013.7,1008.9
"2007/07/25",1011.5,1013.7,1009.4
"2007/07/26",1007.7,1009.5,1006.2
"2007/07/27",1008.1,1008.8,1006.9
"2007/07/28",1005.1,1008.1,1002.4
"2007/07/29",1006.4,1009.4,1004.3
"2007/07/30",1009.1,1010.2,1007.9
"2007/07/31",1009.4,1011.6,1007.9
"2007/08/01",1012.6,1014.2,1011.4
"2007/08/02",1014.9,1016.0,1013.9
"2007/08/03",1011.8,1014.7,1008.8
"2007/08/04",1008.3,1010.0,1007.2
"2007/08/05",1011.5,1015.0,1009.5
"2007/08/06",1015.8,1017.1,1014.4
"2007/08/07",1016.4,1017.4,1015.1
"2007/08/08",1016.4,1017.6,1014.7
"2007/08/09",1014.7,1016.2,1012.8
"2007/08/10",1013.6,1014.6,1012.3
"2007/08/11",1013.5,1014.4,1012.6
"2007/08/12",1013.4,1014.3,1012.0
"2007/08/13",1012.6,1014.0,1010.6
"2007/08/14",1012.4,1013.7,1010.7
"2007/08/15",1012.1,1013.1,1010.4
"2007/08/16",1010.8,1012.6,1008.9
"2007/08/17",1008.8,1010.4,1006.8
"2007/08/18",1011.1,1012.4,1009.9
"2007/08/19",1010.7,1012.2,1008.6
"2007/08/20",1009.7,1010.8,1008.3
"2007/08/21",1007.1,1009.6,1004.4
"2007/08/22",1005.7,1009.8,1002.7
"2007/08/23",1012.4,1016.7,1008.6
"2007/08/24",1017.4,1018.6,1015.9
"2007/08/25",1016.5,1018.0,1014.5
"2007/08/26",1014.9,1017.2,1012.7
"2007/08/27",1011.6,1014.0,1009.3
"2007/08/28",1008.3,1010.3,1006.1
"2007/08/29",1009.8,1010.9,1008.2
"2007/08/30",1009.2,1011.3,1007.7
"2007/08/31",1007.5,1010.4,1004.7
"2007/09/01",1010.7,1013.2,1007.0
"2007/09/02",1012.5,1013.7,1011.4
"2007/09/03",1011.5,1012.8,1010.0
"2007/09/04",1011.6,1013.0,1010.6
"2007/09/05",1009.9,1011.5,1008.2
"2007/09/06",1003.8,1008.7, 992.8
"2007/09/07", 994.5,1002.7, 985.7
"2007/09/08",1005.6,1008.3,1002.6
"2007/09/09",1008.8,1010.1,1007.1
"2007/09/10",1009.8,1011.3,1008.3
"2007/09/11",1012.9,1014.4,1011.1
"2007/09/12",1011.8,1015.8,1008.0
"2007/09/13",1015.4,1015.6,1015.3
"2007/09/14",1016.8,1018.5,1015.3
"2007/09/15",1015.5,1017.2,1013.6
"2007/09/16",1014.1,1015.1,1012.0
"2007/09/17",1012.7,1014.9,1010.3
"2007/09/18",1015.3,1019.9,1011.4
"2007/09/19",1020.4,1021.3,1019.2
"2007/09/20",1020.0,1021.1,1018.0
"2007/09/21",1019.2,1020.8,1017.4
"2007/09/22",1017.6,1018.6,1016.0
"2007/09/23",1019.6,1020.8,1017.9
"2007/09/24",1018.1,1020.4,1014.5
"2007/09/25",1011.1,1014.6,1008.0
"2007/09/26",1017.2,1020.2,1013.0
"2007/09/27",1017.4,1020.1,1013.8
"2007/09/28",1011.3,1016.2,1007.5
"2007/09/29",1021.6,1023.9,1016.2
"2007/09/30",1019.5,1022.9,1017.0
"2007/10/01",1017.0,1018.5,1015.3
"2007/10/02",1016.3,1018.1,1014.4
"2007/10/03",1020.1,1021.2,1018.0
"2007/10/04",1018.3,1020.9,1014.2
"2007/10/05",1013.3,1015.3,1011.4
"2007/10/06",1016.9,1019.7,1014.7
"2007/10/07",1019.1,1021.1,1016.5
"2007/10/08",1009.6,1016.6,1004.6
"2007/10/09",1011.1,1014.0,1007.8
"2007/10/10",1015.8,1017.8,1013.2
"2007/10/11",1015.4,1017.2,1013.0
"2007/10/12",1016.6,1019.8,1014.7
"2007/10/13",1021.8,1023.5,1019.5
"2007/10/14",1020.2,1021.9,1018.2
"2007/10/15",1019.7,1021.8,1017.8
"2007/10/16",1020.5,1022.1,1018.5
"2007/10/17",1018.6,1019.8,1017.1
"2007/10/18",1021.2,1023.4,1019.0
"2007/10/19",1019.6,1023.3,1012.5
"2007/10/20",1008.2,1012.8,1005.9
"2007/10/21",1013.8,1017.0,1008.4
"2007/10/22",1017.3,1019.5,1015.9
"2007/10/23",1020.9,1026.3,1016.9
"2007/10/24",1029.2,1030.9,1026.2
"2007/10/25",1028.1,1030.3,1025.6
"2007/10/26",1018.1,1025.7,1010.5
"2007/10/27",1006.1,1013.7, 996.5
"2007/10/28",1015.0,1019.6,1004.7
"2007/10/29",1016.4,1018.6,1013.5
"2007/10/30",1020.7,1023.9,1017.0
"2007/10/31",1023.7,1025.2,1021.2
"2007/11/01",1014.4,1021.3,1010.1
"2007/11/02",1016.1,1020.3,1011.1
"2007/11/03",1021.0,1024.0,1019.4
"2007/11/04",1026.8,1029.3,1023.8
"2007/11/05",1027.2,1029.9,1023.2
"2007/11/06",1018.9,1023.4,1016.0
"2007/11/07",1018.6,1020.5,1017.1
"2007/11/08",1020.4,1021.7,1019.2
"2007/11/09",1021.0,1022.0,1019.8
"2007/11/10",1020.2,1021.6,1017.0
"2007/11/11",1009.0,1017.0,1004.2
"2007/11/12",1002.2,1004.6,1000.0
"2007/11/13",1012.8,1019.0,1003.2
"2007/11/14",1019.6,1022.0,1018.0
"2007/11/15",1016.8,1018.7,1014.0
"2007/11/16",1019.8,1021.6,1018.3
"2007/11/17",1015.7,1019.6,1009.1
"2007/11/18",1007.0,1015.4,1002.0
"2007/11/19",1023.1,1026.2,1015.3
"2007/11/20",1016.7,1023.8,1012.6
"2007/11/21",1016.6,1019.9,1013.9
"2007/11/22",1019.9,1022.5,1017.4
"2007/11/23",1024.0,1027.4,1021.0
"2007/11/24",1024.9,1026.8,1022.6
"2007/11/25",1026.1,1028.3,1023.9
"2007/11/26",1016.2,1023.9,1008.8
"2007/11/27",1010.2,1012.8,1007.3
"2007/11/28",1017.2,1021.3,1012.1
"2007/11/29",1019.7,1021.5,1017.4
"2007/11/30",1019.3,1020.7,1018.1
"2007/12/01",1016.6,1019.2,1013.8
"2007/12/02",1016.7,1019.7,1014.8
"2007/12/03",1012.6,1016.4,1007.6
"2007/12/04",1016.7,1020.9,1013.7
"2007/12/05",1019.6,1020.8,1017.3
"2007/12/06",1019.7,1022.0,1016.7
"2007/12/07",1013.4,1016.7,1010.9
"2007/12/08",1015.5,1017.1,1013.2
"2007/12/09",1016.3,1021.3,1013.3
"2007/12/10",1022.7,1024.8,1021.3
"2007/12/11",1018.1,1022.3,1011.5
"2007/12/12",1011.6,1013.8,1009.8
"2007/12/13",1003.9,1012.1, 998.4
"2007/12/14",1003.2,1008.9, 998.4
"2007/12/15",1009.8,1011.2,1008.0
"2007/12/16",1016.0,1020.6,1010.4
"2007/12/17",1017.0,1020.3,1013.4
"2007/12/18",1012.3,1014.9,1008.8
"2007/12/19",1018.5,1020.1,1014.8
"2007/12/20",1019.9,1022.7,1018.0
"2007/12/21",1024.7,1028.5,1021.0
"2007/12/22",1027.4,1030.7,1022.3
"2007/12/23",1014.8,1022.3,1011.3
"2007/12/24",1017.6,1026.4,1010.6
"2007/12/25",1027.8,1029.7,1025.6
"2007/12/26",1029.6,1031.5,1028.1
"2007/12/27",1028.5,1030.9,1025.8
"2007/12/28",1021.4,1025.9,1012.9
"2007/12/29",1002.0,1012.9, 998.1
"2007/12/30", 995.0, 998.5, 989.9
"2007/12/31", 998.2,1000.7, 995.9
